Home   Weather   Chatham   Past weeks
Flag for United Kingdom

Past Weather in Chatham, England, United Kingdom — Yesterday and Last 2 Weeks

Now
52 °F

Clear.


Feels Like: 47 °F
Forecast: 58 / 46 °F
Wind: 13 mph from South

Location: Southend Airport-On-Sea

Current Time: Oct 19, 2019 at 12:52:59 am

Latest Report: Oct 19, 2019 at 12:20 am


Visibility: 10 mi

Pressure: 29.53 "Hg

Humidity: 82%

Dew Point: 46 °F

Location of ChathamLocation

Past Weather in Chatham — Graph

°F

Chatham Temperature Yesterday

Maximum temperature yesterday: 59 °F (at 3:20 pm)
Minimum temperature yesterday: 50 °F (at 4:20 am)
Average temperature yesterday: 53 °F

High & Low Weather Summary for the Past Weeks

 TemperatureHumidityPressure
High64 °F (Oct 13, 11:50 am)100% (Oct 5, 5:50 am)30.04 "Hg (Oct 5, 5:50 am)
Low45 °F (Oct 17, 6:50 am)51% (Oct 9, 4:50 pm)29.45 "Hg (Oct 18, 6:20 am)
Average55 °F87%29.73 "Hg
* Reported Oct 3 11:20 pm — Oct 18 11:50 pm, Chatham. Weather by CustomWeather, © 2019

Note: Actual official high and low records may vary slightly from our data, if they occured in-between our weather recording intervals... More about our weather records

Advertising

Chatham Weather History for the Previous 24 Hours

Scroll right to see more
 ConditionsComfort  
Time TempWeatherWind HumidityBarometerVisibility
11:50 pm
Fri, Oct 18
54 °FClear.16 mph77%29.53 "Hg10 mi
11:20 pm54 °FClear.12 mph82%29.53 "Hg10 mi
10:50 pm52 °FClear.10 mph88%29.53 "Hg10 mi
10:20 pm52 °FClear.10 mph88%29.53 "Hg10 mi
9:50 pm52 °FClear.10 mph88%29.53 "Hg10 mi
9:20 pm52 °FClear.14 mph88%29.53 "Hg10 mi
8:50 pm54 °FClear.14 mph82%29.53 "Hg10 mi
8:20 pm54 °FClear.17 mph82%29.53 "Hg10 mi
7:50 pm52 °FPassing clouds.17 mph82%29.53 "HgN/A
7:20 pm54 °FPassing clouds.18 mph82%29.53 "HgN/A
6:50 pm54 °FPassing clouds.17 mph77%29.53 "HgN/A
6:20 pm54 °FPassing clouds.18 mph82%29.56 "HgN/A
5:50 pm55 °FPassing clouds.18 mph72%29.53 "HgN/A
5:20 pm55 °FScattered clouds.22 mph72%29.53 "HgN/A
4:50 pm55 °FScattered clouds.22 mph72%29.53 "HgN/A
4:20 pm57 °FPassing clouds.28 mph67%29.53 "HgN/A
3:50 pm59 °FPassing clouds.23 mph63%29.53 "HgN/A
3:20 pm59 °FPassing clouds.24 mph63%29.53 "HgN/A
2:50 pm57 °FScattered clouds.26 mph63%29.53 "HgN/A
2:20 pm57 °FPassing clouds.21 mph72%29.53 "HgN/A
1:50 pm57 °FScattered showers. Passing clouds.23 mph67%29.53 "HgN/A
1:20 pm57 °FScattered showers. Partly sunny.21 mph72%29.53 "HgN/A
12:50 pm57 °FScattered clouds.16 mph72%29.53 "HgN/A
12:20 pm57 °FPassing clouds.21 mph72%29.53 "HgN/A
11:50 am57 °FPassing clouds.22 mph72%29.53 "HgN/A
11:20 am55 °FPassing clouds.17 mph77%29.53 "HgN/A
10:50 am54 °FPassing clouds.16 mph82%29.53 "HgN/A
10:20 am52 °FPassing clouds.16 mph88%29.53 "HgN/A
9:20 am50 °FPassing clouds.15 mph88%29.50 "HgN/A
8:50 am50 °FScattered clouds.18 mph88%29.47 "HgN/A
8:20 am50 °FScattered clouds.14 mph94%29.47 "HgN/A
7:50 am50 °FSprinkles. Scattered clouds.14 mph94%29.47 "HgN/A
7:20 am50 °FPassing clouds.12 mph94%29.45 "HgN/A
6:50 am50 °FPassing clouds.14 mph94%29.45 "HgN/A
6:20 am50 °FPassing clouds.10 mph94%29.45 "HgN/A
5:50 am50 °FPassing clouds.10 mph88%29.47 "HgN/A
5:20 am50 °FPassing clouds.9 mph94%29.47 "HgN/A
4:50 am50 °FPassing clouds.10 mph94%29.47 "HgN/A
4:20 am50 °FPartly cloudy.10 mph94%29.50 "HgN/A
3:50 am52 °FRain showers. Partly cloudy.12 mph88%29.53 "Hg4 mi
3:20 am54 °FPassing clouds.12 mph88%29.50 "HgN/A
2:20 am52 °FPassing clouds.9 mph94%29.56 "HgN/A
1:50 am52 °FPassing clouds.10 mph94%29.56 "HgN/A
12:50 am54 °FClear.9 mph88%29.59 "Hg10 mi
Weather by CustomWeather, © 2019

See weather overview